﻿測定場所 (Monitoring sites),日付 (Measurement date),時間 (Measurement time),線量率 最大値 (max) μGy/h,線量率 最小値 (min) μGy/h,線量率 平均値 (average) μGy/h,
江戸川 (Edogawa),2017-04-02,23:01～24:00,0.0539,0.0483,0.0517,
江戸川 (Edogawa),2017-04-02,22:01～23:00,0.0546,0.0476,0.0511,
江戸川 (Edogawa),2017-04-02,21:01～22:00,0.0544,0.0487,0.0515,
江戸川 (Edogawa),2017-04-02,20:01～21:00,0.0549,0.0471,0.0514,
江戸川 (Edogawa),2017-04-02,19:01～20:00,0.0569,0.0487,0.0517,
江戸川 (Edogawa),2017-04-02,18:01～19:00,0.0546,0.0494,0.0519,
江戸川 (Edogawa),2017-04-02,17:01～18:00,0.0543,0.0484,0.0516,
江戸川 (Edogawa),2017-04-02,16:01～17:00,0.0564,0.0480,0.0520,
江戸川 (Edogawa),2017-04-02,15:01～16:00,0.0549,0.0477,0.0522,
江戸川 (Edogawa),2017-04-02,14:01～15:00,0.0564,0.0498,0.0525,
江戸川 (Edogawa),2017-04-02,13:01～14:00,0.0571,0.0490,0.0527,
江戸川 (Edogawa),2017-04-02,12:01～13:00,0.0553,0.0483,0.0524,
江戸川 (Edogawa),2017-04-02,11:01～12:00,0.0550,0.0492,0.0524,
江戸川 (Edogawa),2017-04-02,10:01～11:00,0.0558,0.0486,0.0525,
江戸川 (Edogawa),2017-04-02,09:01～10:00,0.0548,0.0484,0.0521,
江戸川 (Edogawa),2017-04-02,08:01～09:00,0.0544,0.0486,0.0513,
江戸川 (Edogawa),2017-04-02,07:01～08:00,0.0543,0.0481,0.0512,
江戸川 (Edogawa),2017-04-02,06:01～07:00,0.0540,0.0477,0.0512,
江戸川 (Edogawa),2017-04-02,05:01～06:00,0.0539,0.0458,0.0507,
江戸川 (Edogawa),2017-04-02,04:01～05:00,0.0539,0.0480,0.0510,
江戸川 (Edogawa),2017-04-02,03:01～04:00,0.0541,0.0471,0.0510,
江戸川 (Edogawa),2017-04-02,02:01～03:00,0.0543,0.0474,0.0507,
江戸川 (Edogawa),2017-04-02,01:01～02:00,0.0542,0.0468,0.0506,
江戸川 (Edogawa),2017-04-02,00:01～01:00,0.0536,0.0476,0.0506,
江戸川 (Edogawa),2017-04-01,23:01～24:00,0.0551,0.0483,0.0511,
江戸川 (Edogawa),2017-04-01,22:01～23:00,0.0557,0.0487,0.0512,
江戸川 (Edogawa),2017-04-01,21:01～22:00,0.0544,0.0483,0.0512,
江戸川 (Edogawa),2017-04-01,20:01～21:00,0.0541,0.0483,0.0510,
江戸川 (Edogawa),2017-04-01,19:01～20:00,0.0547,0.0480,0.0511,
江戸川 (Edogawa),2017-04-01,18:01～19:00,0.0546,0.0475,0.0511,
江戸川 (Edogawa),2017-04-01,17:01～18:00,0.0538,0.0484,0.0514,
江戸川 (Edogawa),2017-04-01,16:01～17:00,0.0551,0.0483,0.0515,
江戸川 (Edogawa),2017-04-01,15:01～16:00,0.0553,0.0474,0.0512,
江戸川 (Edogawa),2017-04-01,14:01～15:00,0.0537,0.0484,0.0513,
江戸川 (Edogawa),2017-04-01,13:01～14:00,0.0547,0.0486,0.0518,
江戸川 (Edogawa),2017-04-01,12:01～13:00,0.0551,0.0488,0.0521,
江戸川 (Edogawa),2017-04-01,11:01～12:00,0.0549,0.0498,0.0521,
江戸川 (Edogawa),2017-04-01,10:01～11:00,0.0572,0.0484,0.0534,
江戸川 (Edogawa),2017-04-01,09:01～10:00,0.0568,0.0515,0.0543,
江戸川 (Edogawa),2017-04-01,08:01～09:00,0.0573,0.0496,0.0534,
江戸川 (Edogawa),2017-04-01,07:01～08:00,0.0571,0.0502,0.0534,
江戸川 (Edogawa),2017-04-01,06:01～07:00,0.0598,0.0508,0.0545,
江戸川 (Edogawa),2017-04-01,05:01～06:00,0.0582,0.0517,0.0552,
江戸川 (Edogawa),2017-04-01,04:01～05:00,0.0582,0.0510,0.0560,
江戸川 (Edogawa),2017-04-01,03:01～04:00,0.0602,0.0537,0.0573,
江戸川 (Edogawa),2017-04-01,02:01～03:00,0.0628,0.0544,0.0585,
江戸川 (Edogawa),2017-04-01,01:01～02:00,0.0643,0.0557,0.0605,
江戸川 (Edogawa),2017-04-01,00:01～01:00,0.0658,0.0571,0.0625,
江戸川 (Edogawa),2017-03-31,23:01～24:00,0.0643,0.0580,0.0615,
江戸川 (Edogawa),2017-03-31,22:01～23:00,0.0661,0.0552,0.0597,
江戸川 (Edogawa),2017-03-31,21:01～22:00,0.0600,0.0537,0.0571,
江戸川 (Edogawa),2017-03-31,20:01～21:00,0.0607,0.0526,0.0568,
江戸川 (Edogawa),2017-03-31,19:01～20:00,0.0605,0.0532,0.0566,
江戸川 (Edogawa),2017-03-31,18:01～19:00,0.0616,0.0551,0.0579,
江戸川 (Edogawa),2017-03-31,17:01～18:00,0.0610,0.0528,0.0578,
江戸川 (Edogawa),2017-03-31,16:01～17:00,0.0608,0.0543,0.0581,
江戸川 (Edogawa),2017-03-31,15:01～16:00,0.0599,0.0528,0.0566,
江戸川 (Edogawa),2017-03-31,14:01～15:00,0.0573,0.0514,0.0539,
江戸川 (Edogawa),2017-03-31,13:01～14:00,0.0560,0.0504,0.0532,
江戸川 (Edogawa),2017-03-31,12:01～13:00,0.0565,0.0488,0.0534,
江戸川 (Edogawa),2017-03-31,11:01～12:00,0.0567,0.0503,0.0538,
江戸川 (Edogawa),2017-03-31,10:01～11:00,0.0568,0.0499,0.0535,
江戸川 (Edogawa),2017-03-31,09:01～10:00,0.0580,0.0501,0.0534,
江戸川 (Edogawa),2017-03-31,08:01～09:00,0.0573,0.0494,0.0535,
江戸川 (Edogawa),2017-03-31,07:01～08:00,0.0559,0.0496,0.0531,
江戸川 (Edogawa),2017-03-31,06:01～07:00,0.0561,0.0493,0.0531,
江戸川 (Edogawa),2017-03-31,05:01～06:00,0.0553,0.0493,0.0528,
江戸川 (Edogawa),2017-03-31,04:01～05:00,0.0567,0.0501,0.0530,
江戸川 (Edogawa),2017-03-31,03:01～04:00,0.0560,0.0508,0.0533,
江戸川 (Edogawa),2017-03-31,02:01～03:00,0.0567,0.0498,0.0531,
江戸川 (Edogawa),2017-03-31,01:01～02:00,0.0569,0.0502,0.0534,
江戸川 (Edogawa),2017-03-31,00:01～01:00,0.0564,0.0507,0.0532,
江戸川 (Edogawa),2017-03-30,23:01～24:00,0.0567,0.0504,0.0536,
江戸川 (Edogawa),2017-03-30,22:01～23:00,0.0570,0.0491,0.0534,
江戸川 (Edogawa),2017-03-30,21:01～22:00,0.0555,0.0497,0.0529,
江戸川 (Edogawa),2017-03-30,20:01～21:00,0.0564,0.0494,0.0531,
江戸川 (Edogawa),2017-03-30,19:01～20:00,0.0560,0.0497,0.0528,
江戸川 (Edogawa),2017-03-30,18:01～19:00,0.0562,0.0495,0.0531,
江戸川 (Edogawa),2017-03-30,17:01～18:00,0.0598,0.0493,0.0534,
江戸川 (Edogawa),2017-03-30,16:01～17:00,0.0565,0.0498,0.0533,
江戸川 (Edogawa),2017-03-30,15:01～16:00,0.0581,0.0511,0.0540,
江戸川 (Edogawa),2017-03-30,14:01～15:00,0.0561,0.0503,0.0536,
江戸川 (Edogawa),2017-03-30,13:01～14:00,0.0571,0.0504,0.0537,
江戸川 (Edogawa),2017-03-30,12:01～13:00,0.0567,0.0502,0.0535,
江戸川 (Edogawa),2017-03-30,11:01～12:00,0.0567,0.0505,0.0539,
江戸川 (Edogawa),2017-03-30,10:01～11:00,0.0574,0.0497,0.0537,
江戸川 (Edogawa),2017-03-30,09:01～10:00,0.0564,0.0497,0.0534,
江戸川 (Edogawa),2017-03-30,08:01～09:00,0.0559,0.0497,0.0531,
江戸川 (Edogawa),2017-03-30,07:01～08:00,0.0570,0.0496,0.0527,
江戸川 (Edogawa),2017-03-30,06:01～07:00,0.0550,0.0501,0.0527,
江戸川 (Edogawa),2017-03-30,05:01～06:00,0.0588,0.0497,0.0528,
江戸川 (Edogawa),2017-03-30,04:01～05:00,0.0566,0.0491,0.0526,
江戸川 (Edogawa),2017-03-30,03:01～04:00,0.0547,0.0501,0.0526,
江戸川 (Edogawa),2017-03-30,02:01～03:00,0.0562,0.0499,0.0524,
江戸川 (Edogawa),2017-03-30,01:01～02:00,0.0548,0.0489,0.0522,
江戸川 (Edogawa),2017-03-30,00:01～01:00,0.0557,0.0500,0.0524,
江戸川 (Edogawa),2017-03-29,23:01～24:00,0.0548,0.0480,0.0521,
江戸川 (Edogawa),2017-03-29,22:01～23:00,0.0550,0.0481,0.0522,
江戸川 (Edogawa),2017-03-29,21:01～22:00,0.0548,0.0494,0.0518,
江戸川 (Edogawa),2017-03-29,20:01～21:00,0.0552,0.0478,0.0520,
江戸川 (Edogawa),2017-03-29,19:01～20:00,0.0552,0.0486,0.0520,
江戸川 (Edogawa),2017-03-29,18:01～19:00,0.0550,0.0496,0.0523,
江戸川 (Edogawa),2017-03-29,17:01～18:00,0.0553,0.0492,0.0525,
江戸川 (Edogawa),2017-03-29,16:01～17:00,0.0564,0.0499,0.0529,
江戸川 (Edogawa),2017-03-29,15:01～16:00,0.0574,0.0487,0.0527,
江戸川 (Edogawa),2017-03-29,14:01～15:00,0.0556,0.0487,0.0527,
江戸川 (Edogawa),2017-03-29,13:01～14:00,0.0571,0.0495,0.0530,
江戸川 (Edogawa),2017-03-29,12:01～13:00,0.0561,0.0495,0.0529,
江戸川 (Edogawa),2017-03-29,11:01～12:00,0.0569,0.0484,0.0528,
江戸川 (Edogawa),2017-03-29,10:01～11:00,0.0554,0.0495,0.0524,
江戸川 (Edogawa),2017-03-29,09:01～10:00,0.0559,0.0497,0.0525,
江戸川 (Edogawa),2017-03-29,08:01～09:00,0.0557,0.0488,0.0524,
江戸川 (Edogawa),2017-03-29,07:01～08:00,0.0551,0.0491,0.0523,
江戸川 (Edogawa),2017-03-29,06:01～07:00,0.0551,0.0491,0.0518,
江戸川 (Edogawa),2017-03-29,05:01～06:00,0.0563,0.0488,0.0522,
江戸川 (Edogawa),2017-03-29,04:01～05:00,0.0555,0.0481,0.0518,
江戸川 (Edogawa),2017-03-29,03:01～04:00,0.0550,0.0486,0.0518,
江戸川 (Edogawa),2017-03-29,02:01～03:00,0.0559,0.0484,0.0522,
江戸川 (Edogawa),2017-03-29,01:01～02:00,0.0550,0.0480,0.0515,
江戸川 (Edogawa),2017-03-29,00:01～01:00,0.0538,0.0468,0.0515,
江戸川 (Edogawa),2017-03-28,23:01～24:00,0.0553,0.0477,0.0518,
江戸川 (Edogawa),2017-03-28,22:01～23:00,0.0552,0.0475,0.0514,
江戸川 (Edogawa),2017-03-28,21:01～22:00,0.0544,0.0490,0.0519,
江戸川 (Edogawa),2017-03-28,20:01～21:00,0.0552,0.0494,0.0520,
江戸川 (Edogawa),2017-03-28,19:01～20:00,0.0552,0.0485,0.0519,
江戸川 (Edogawa),2017-03-28,18:01～19:00,0.0553,0.0489,0.0519,
江戸川 (Edogawa),2017-03-28,17:01～18:00,0.0556,0.0482,0.0522,
江戸川 (Edogawa),2017-03-28,16:01～17:00,0.0565,0.0493,0.0525,
江戸川 (Edogawa),2017-03-28,15:01～16:00,0.0552,0.0485,0.0521,
江戸川 (Edogawa),2017-03-28,14:01～15:00,0.0557,0.0498,0.0524,
江戸川 (Edogawa),2017-03-28,13:01～14:00,0.0556,0.0508,0.0529,
江戸川 (Edogawa),2017-03-28,12:01～13:00,0.0564,0.0491,0.0525,
江戸川 (Edogawa),2017-03-28,11:01～12:00,0.0564,0.0499,0.0525,
江戸川 (Edogawa),2017-03-28,10:01～11:00,0.0566,0.0492,0.0527,
江戸川 (Edogawa),2017-03-28,09:01～10:00,0.0540,0.0487,0.0519,
江戸川 (Edogawa),2017-03-28,08:01～09:00,0.0549,0.0493,0.0516,
江戸川 (Edogawa),2017-03-28,07:01～08:00,0.0566,0.0484,0.0516,
江戸川 (Edogawa),2017-03-28,06:01～07:00,0.0559,0.0479,0.0513,
江戸川 (Edogawa),2017-03-28,05:01～06:00,0.0546,0.0490,0.0511,
江戸川 (Edogawa),2017-03-28,04:01～05:00,0.0542,0.0474,0.0510,
江戸川 (Edogawa),2017-03-28,03:01～04:00,0.0541,0.0484,0.0509,
江戸川 (Edogawa),2017-03-28,02:01～03:00,0.0543,0.0478,0.0510,
江戸川 (Edogawa),2017-03-28,01:01～02:00,0.0543,0.0473,0.0509,
江戸川 (Edogawa),2017-03-28,00:01～01:00,0.0540,0.0490,0.0514,
江戸川 (Edogawa),2017-03-27,23:01～24:00,0.0543,0.0483,0.0509,
江戸川 (Edogawa),2017-03-27,22:01～23:00,0.0539,0.0484,0.0512,
江戸川 (Edogawa),2017-03-27,21:01～22:00,0.0544,0.0488,0.0512,
江戸川 (Edogawa),2017-03-27,20:01～21:00,0.0550,0.0471,0.0509,
江戸川 (Edogawa),2017-03-27,19:01～20:00,0.0540,0.0474,0.0508,
江戸川 (Edogawa),2017-03-27,18:01～19:00,0.0551,0.0474,0.0510,
江戸川 (Edogawa),2017-03-27,17:01～18:00,0.0529,0.0474,0.0508,
江戸川 (Edogawa),2017-03-27,16:01～17:00,0.0544,0.0477,0.0509,
江戸川 (Edogawa),2017-03-27,15:01～16:00,0.0537,0.0477,0.0512,
江戸川 (Edogawa),2017-03-27,14:01～15:00,0.0573,0.0501,0.0534,
江戸川 (Edogawa),2017-03-27,13:01～14:00,0.0597,0.0514,0.0555,
江戸川 (Edogawa),2017-03-27,12:01～13:00,0.0584,0.0517,0.0546,
江戸川 (Edogawa),2017-03-27,11:01～12:00,0.0584,0.0526,0.0555,
江戸川 (Edogawa),2017-03-27,10:01～11:00,0.0593,0.0513,0.0550,
江戸川 (Edogawa),2017-03-27,09:01～10:00,0.0601,0.0525,0.0565,
江戸川 (Edogawa),2017-03-27,08:01～09:00,0.0618,0.0547,0.0578,
江戸川 (Edogawa),2017-03-27,07:01～08:00,0.0624,0.0554,0.0593,
江戸川 (Edogawa),2017-03-27,06:01～07:00,0.0620,0.0543,0.0592,
江戸川 (Edogawa),2017-03-27,05:01～06:00,0.0634,0.0560,0.0595,
江戸川 (Edogawa),2017-03-27,04:01～05:00,0.0635,0.0565,0.0599,
江戸川 (Edogawa),2017-03-27,03:01～04:00,0.0639,0.0567,0.0607,
江戸川 (Edogawa),2017-03-27,02:01～03:00,0.0622,0.0544,0.0582,
江戸川 (Edogawa),2017-03-27,01:01～02:00,0.0606,0.0525,0.0571,
江戸川 (Edogawa),2017-03-27,00:01～01:00,0.0601,0.0515,0.0558,
